User: anonymous   Login
Location: Unspecified
(0.0000°N, 0.0000°E)
Time: 03:59:00
(UTC+00:00)
Language:

Sapphire - Orbit

View from above orbital plane
View from above orbital plane
View from above satellite
View from above satellite

Ground track
Ground track

The orbit data is extracted from the following two-line orbital elements,

1 26932U 01043D   17327.58343750 -.00000022 +00000-0 +23412-4 0  9996
2 26932 067.0577 042.4869 0005681 245.8243 114.2264 14.30265642843094
Epoch (UTC): 23 November 2017 14:00:09
Eccentricity: 0.0005681
inclination: 67.0577°
perigee height: 787 km
apogee height: 795 km
right ascension of ascending node: 42.4869°
argument of perigee: 245.8243°
revolutions per day: 14.30265642
mean anomaly at epoch: 114.2264°
orbit number at epoch: 84309

The dashed part of the orbit path shows where the satellite is in the earth's shadow,  

DLR